This is the latest recevied weather packets stored in our database for station/object SP1BMW-13. If no packets are shown the sender has not sent any weather packets the latest 10 day(s).
| Time | Temp. | Humidity | Pressure | Rain* | Wind** | Luminosity | Snow |
|---|---|---|---|---|---|---|---|
| 1777373878 | 14.44° C | 28% | 1025.9 hPa | 0 mm | 1.79 m/s, 83° | 691 W/m² | - |
| 1777373819 | 13.89° C | 29% | 1026 hPa | 0 mm | 0.45 m/s, 74° | 690 W/m² | - |
| 1777373758 | 13.89° C | 30% | 1026.1 hPa | 0 mm | 1.34 m/s, 329° | 690 W/m² | - |
| 1777373698 | 13.89° C | 28% | 1026.1 hPa | 0 mm | 0.89 m/s, 58° | 694 W/m² | - |
| 1777373638 | 13.89° C | 27% | 1026.1 hPa | 0 mm | 0.89 m/s, 63° | 694 W/m² | - |
| 1777373578 | 13.33° C | 28% | 1026.1 hPa | 0 mm | 0.45 m/s, 61° | 696 W/m² | - |
| 1777373518 | 13.33° C | 28% | 1026 hPa | 0 mm | 0.89 m/s, 105° | 694 W/m² | - |
| 1777373459 | 13.89° C | 29% | 1026 hPa | 0 mm | 1.79 m/s, 43° | 677 W/m² | - |
| 1777373398 | 13.89° C | 28% | 1026.1 hPa | 0 mm | 0.89 m/s, 40° | 676 W/m² | - |
| 1777373338 | 13.89° C | 28% | 1026.1 hPa | 0 mm | 0 m/s | 639 W/m² | - |
| 1777373278 | 13.89° C | 26% | 1026.1 hPa | 0 mm | 1.34 m/s, 49° | 591 W/m² | - |
| 1777373219 | 13.89° C | 24% | 1025.9 hPa | 0 mm | 1.79 m/s, 136° | 560 W/m² | - |
| 1777373158 | 13.89° C | 25% | 1025.9 hPa | 0 mm | 1.79 m/s, 127° | 498 W/m² | - |
| 1777373098 | 13.89° C | 26% | 1026.1 hPa | 0 mm | 0.45 m/s, 136° | 434 W/m² | - |
| 1777373038 | 13.89° C | 22% | 1026.1 hPa | 0 mm | 0.45 m/s, 51° | 458 W/m² | - |
| 1777372978 | 13.33° C | 24% | 1026 hPa | 0 mm | 0.45 m/s, 63° | 457 W/m² | - |
| 1777372918 | 13.33° C | 27% | 1026.1 hPa | 0 mm | 0 m/s | 507 W/m² | - |
| 1777372858 | 13.33° C | 26% | 1025.9 hPa | 0 mm | 0.45 m/s, 24° | 456 W/m² | - |
| 1777372798 | 13.33° C | 23% | 1026.1 hPa | 0 mm | 0.45 m/s, 52° | 454 W/m² | - |
| 1777372738 | 13.33° C | 23% | 1026 hPa | 0 mm | 0 m/s | 446 W/m² | - |
| 1777372679 | 13.33° C | 22% | 1026.1 hPa | 0 mm | 0.45 m/s, 197° | 404 W/m² | - |
| 1777372618 | 13.89° C | 22% | 1026 hPa | 0 mm | 0.45 m/s, 257° | 497 W/m² | - |
| 1777372558 | 13.89° C | 22% | 1026.2 hPa | 0 mm | 0.89 m/s, 242° | 450 W/m² | - |
| 1777372498 | 14.44° C | 23% | 1026 hPa | 0 mm | 0.45 m/s, 116° | 436 W/m² | - |
| 1777372438 | 14.44° C | 21% | 1026.2 hPa | 0 mm | 1.34 m/s, 133° | 422 W/m² | - |
* Rain latest hour (hover to see other rain measurements)
** Current wind speed in m/s (hover to see current wind gust speed)